Location: Unspecified
(0.0000°N, 0.0000°E)
Time: 17:57:31
(UTC+00:00)

Vanguard 1 Rocket - Pass Details

Date: 24 April 2026
Orbit: 655 x 4212 km, 34.3° (Epoch: 17 May)

Event Time Altitude Azimuth Distance (km) Brightness Sun altitude
Rises 18:27:44 0° 259° (W) 5,645 12.8 -7.2°
Reaches altitude 10° 18:31:07 10° 266° (W) 5,046 12.6 -8.0°
Maximum altitude 18:46:12 43° 333° (NNW) 4,353 11.2 -11.7°
Drops below altitude 10° 19:09:35 10° 38° (NE) 7,407 11.8 -17.4°
Sets 19:16:15 0° 45° (NE) 8,384 12.0 -19.0°
